Theta_e
345 347 347 346 345 342 341 338 337 341 344 345 346 347 347 346 346 347 347 347 346 344 340 338 339 339 338 338 339 339 340 339 339 339 339 339 339 339 338 338 338 338 339 339 337 335 335 335 335 335 334 333 332 335 341 343 343 342 342 341 339 340 341 344 347 347 346 344 344 344 344 345 345 346 345 346 346 348 350 351 352 352 352 352 352
345 347 346 346 344 341 341 340 339 342 345 347 348 348 348 348 348 348 347 347 347 347 344 341 340 339 338 338 338 339 339 339 339 339 338 339 340 339 339 338 339 339 339 337 335 335 336 336 336 336 335 335 333 333 338 343 343 343 342 341 340 339 340 343 346 347 346 343 340 340 341 342 343 343 342 343 343 345 347 348 350 352 352 352 352
343 345 346 345 343 342 343 341 340 341 345 349 351 349 348 348 348 346 345 345 347 347 345 341 338 337 338 339 339 339 339 339 337 337 338 341 341 340 339 339 339 339 337 336 336 337 338 337 337 337 338 338 334 331 333 338 342 343 342 342 342 342 343 345 346 346 347 346 342 338 338 340 341 341 339 340 342 344 345 345 347 348 350 350 350
344 345 345 343 342 343 344 344 344 347 351 353 353 350 347 344 343 344 345 345 345 344 342 341 340 339 339 339 340 339 339 337 337 339 342 344 344 343 342 341 340 339 337 338 339 340 339 337 336 337 338 338 336 333 332 335 340 343 343 343 343 343 343 344 346 346 346 346 344 340 337 337 338 337 336 336 337 339 342 343 344 345 346 347 348
343 344 344 344 344 345 346 346 348 351 353 354 352 349 345 343 341 341 342 342 341 340 340 341 341 340 339 339 339 338 338 339 340 342 342 343 344 345 344 342 340 340 340 341 342 341 339 336 336 337 337 338 337 335 333 333 336 338 340 341 341 341 341 342 344 344 344 345 345 343 339 338 338 336 335 336 337 337 338 339 340 342 344 345 346
345 345 345 345 346 348 348 348 349 350 350 353 354 348 343 345 344 338 334 334 334 333 336 339 339 338 338 338 339 340 341 342 341 340 341 342 343 342 342 341 342 343 343 343 343 341 338 336 336 337 338 339 339 337 336 336 336 337 339 340 340 340 340 340 341 342 343 344 345 344 342 341 341 339 336 337 339 338 338 337 337 340 341 343 344
350 348 347 347 348 349 352 352 349 347 349 355 355 346 340 342 341 335 332 333 334 335 338 340 340 340 341 342 344 345 346 345 343 343 343 343 341 340 342 344 345 345 344 344 342 339 337 336 336 337 338 340 340 340 339 339 340 340 341 342 342 342 341 341 341 342 343 344 344 344 343 342 341 340 339 339 339 339 338 337 336 336 336 338 339
357 358 355 355 354 354 356 354 347 345 349 352 346 339 339 339 336 335 337 339 342 345 346 346 346 346 346 346 346 346 346 345 344 342 342 340 340 342 344 345 345 344 343 341 338 336 337 337 337 338 338 339 340 340 339 340 342 342 342 343 343 343 344 343 343 343 344 344 344 344 343 343 343 341 340 340 340 338 337 337 336 334 334 334 334
356 359 358 357 357 356 355 353 347 345 345 343 337 337 341 342 343 345 347 347 348 349 348 348 347 347 346 345 344 344 343 343 342 343 343 343 344 345 345 344 343 341 340 338 337 336 338 339 339 339 338 338 339 339 339 340 341 341 341 341 342 342 344 344 344 344 344 345 345 344 344 344 343 342 341 340 338 337 336 336 335 334 334 334 334
348 352 353 354 354 352 350 350 347 343 343 344 346 349 350 350 350 349 348 346 344 343 343 344 345 344 344 343 343 342 342 342 343 345 345 345 345 344 344 343 341 340 339 339 338 338 339 340 340 339 338 338 339 340 339 339 340 340 340 340 340 341 342 344 344 344 344 344 344 344 344 343 342 340 340 338 337 337 337 336 336 335 335 336 336
348 349 349 351 352 352 353 354 351 350 352 354 355 354 352 348 344 341 339 338 338 339 341 342 343 343 344 344 344 344 345 344 344 344 344 344 343 343 343 341 340 340 339 339 338 339 340 341 340 339 338 338 338 339 339 339 339 340 340 340 339 339 341 342 342 342 343 343 343 343 343 342 340 338 337 337 337 337 337 337 337 336 337 337 337
350 349 349 351 350 350 350 350 351 351 351 349 346 342 339 337 336 336 338 339 341 342 343 344 345 345 344 345 344 344 343 342 341 341 340 340 340 341 340 340 339 339 339 339 339 340 340 340 338 338 338 338 338 339 340 339 339 339 339 339 338 338 339 339 340 340 340 340 340 340 340 340 338 337 337 337 337 336 336 337 337 337 338 338 338
344 344 344 342 341 340 340 341 341 340 337 335 334 335 337 340 342 343 344 345 346 346 345 345 344 343 342 341 340 339 339 338 338 337 337 337 337 338 338 339 339 338 338 337 338 339 339 339 339 339 339 339 339 339 339 339 339 338 338 337 337 337 336 336 336 337 337 338 339 339 339 339 338 337 336 336 337 337 338 339 339 339 340 339 339
339 340 340 339 338 336 335 334 333 332 333 336 340 342 344 346 347 346 346 345 344 343 342 340 338 337 337 337 337 337 336 336 335 335 334 334 334 335 335 336 336 336 335 335 337 338 339 339 340 340 339 339 339 339 339 339 339 338 337 337 336 335 335 334 334 334 334 336 338 339 338 338 338 338 337 337 339 339 340 340 340 341 341 340 340
337 338 336 333 330 329 330 332 335 339 342 344 345 346 346 346 345 343 342 340 339 338 336 335 335 335 335 336 336 335 335 334 334 333 333 333 334 335 335 336 336 336 335 335 336 338 338 338 339 339 339 339 339 339 339 339 338 337 337 336 334 333 332 332 332 332 332 333 335 337 338 338 339 339 338 339 340 339 340 340 340 341 341 341 341
332 331 329 329 331 334 337 340 343 344 345 344 344 342 341 339 338 337 336 335 335 334 334 334 334 334 334 334 333 333 332 332 332 332 332 332 333 334 335 336 336 336 336 336 337 337 338 338 338 338 338 338 339 338 338 337 336 335 335 334 333 332 332 331 332 332 332 333 334 336 337 338 339 339 339 339 339 338 339 339 340 341 341 341 341
333 332 332 334 337 339 341 342 342 341 340 338 336 334 333 332 332 332 332 332 332 332 332 332 331 331 330 330 330 330 330 330 330 330 330 330 331 332 333 334 335 335 336 336 336 337 337 337 337 337 337 337 337 337 336 335 334 334 334 333 333 333 333 333 332 332 332 333 335 336 338 339 339 339 339 339 338 338 339 340 340 340 342 342 342
331 331 332 334 336 338 338 337 336 334 333 331 331 330 330 331 330 330 330 330 330 330 329 329 328 328 328 328 329 329 330 330 330 331 331 331 331 332 333 333 334 335 335 334 334 335 335 336 336 336 336 335 335 334 334 334 333 334 334 334 334 334 334 333 334 334 334 334 336 337 338 339 339 339 338 338 338 338 340 341 340 341 342 343 342
330 333 334 336 337 336 334 333 331 331 330 330 330 330 330 329 329 328 328 328 328 328 328 328 329 329 329 330 331 331 332 332 333 333 334 334 333 333 333 334 334 334 334 334 333 334 334 334 334 334 334 335 334 334 334 334 334 334 334 335 336 336 335 335 335 336 336 337 337 338 338 339 339 339 338 338 339 339 339 340 340 341 341 341 341
336 337 337 336 334 332 331 331 331 331 330 329 328 327 327 327 327 327 327 328 328 328 329 330 330 331 331 332 333 333 333 334 334 334 335 335 335 335 334 334 334 334 335 335 335 335 335 334 334 334 334 335 335 335 335 335 335 334 334 335 336 336 336 336 337 337 338 338 338 338 339 339 339 339 339 339 339 339 338 339 340 341 341 342 342
337 335 334 332 331 332 332 331 330 329 327 326 326 325 326 326 326 327 328 328 329 329 330 330 331 332 332 333 333 333 334 334 334 334 334 334 335 335 335 335 335 335 335 335 335 335 335 335 335 335 335 336 336 336 336 336 335 335 335 335 336 335 336 336 337 337 337 338 338 339 339 339 339 339 338 337 337 338 339 339 339 340 341 342 342
332 331 331 330 331 331 330 329 328 326 325 325 325 325 325 325 326 327 328 329 329 329 330 331 332 332 332 333 333 334 333 334 334 333 334 334 334 334 334 334 334 334 335 335 335 335 335 335 335 335 336 336 336 336 336 335 335 335 335 335 335 336 336 336 336 336 336 337 337 338 338 338 338 337 336 336 337 338 339 339 339 339 339 340 341
329 330 330 330 329 329 327 327 326 325 325 325 325 325 326 326 326 327 328 329 329 330 331 332 332 332 332 333 333 332 332 332 332 332 332 332 332 332 332 331 331 331 332 332 333 333 334 334 335 334 335 335 335 335 334 334 334 335 335 335 335 335 335 335 335 335 335 335 336 336 337 337 336 336 336 337 337 337 338 338 338 338 338 339 340
328 329 329 328 327 326 326 325 325 325 325 325 325 325 326 326 327 328 328 329 330 330 331 332 332 332 332 332 331 331 330 330 330 329 329 329 329 329 329 329 329 329 329 330 331 331 332 332 332 333 333 333 333 333 333 333 333 333 333 333 333 333 333 333 333 333 333 334 334 335 336 336 336 336 336 337 337 337 337 337 337 337 339 339 340
327 327 327 326 326 325 324 324 324 325 325 325 326 326 326 327 327 328 329 329 330 330 331 330 330 329 329 328 328 327 326 326 325 325 324 324 325 325 325 326 326 326 327 328 328 329 329 330 330 330 330 330 331 331 331 331 331 331 331 331 331 331 331 331 332 332 332 333 334 334 335 335 336 336 336 336 336 336 336 336 336 337 338 339 340
326 326 325 325 324 323 324 324 325 325 325 326 326 327 327 328 328 329 329 329 329 329 329 328 327 325 324 323 323 322 322 321 321 321 321 321 322 322 323 323 324 324 324 325 326 326 327 327 328 328 328 328 328 328 329 329 330 330 330 330 330 330 330 331 331 331 332 333 334 334 335 336 335 335 335 335 335 335 335 336 337 338 339 339 340
325 324 324 324 323 324 324 324 324 325 326 326 327 327 328 329 329 328 328 328 327 326 325 323 322 321 321 320 319 319 319 319 319 320 320 321 321 321 322 323 323 324 324 324 325 325 326 326 327 327 328 328 329 329 329 330 330 330 331 331 331 331 332 332 332 333 333 335 336 336 337 337 337 337 336 335 335 336 336 336 337 338 339 339 339
324 324 324 323 324 324 324 325 325 326 326 327 327 328 328 328 328 327 327 325 324 322 321 320 319 319 318 318 318 318 318 318 319 320 320 321 321 321 322 323 324 325 325 326 326 326 327 327 327 327 328 328 329 329 330 330 331 332 332 333 333 334 334 334 334 335 336 336 337 337 337 338 338 337 337 336 336 336 337 337 337 338 338 338 339
324 324 324 324 324 324 324 325 326 326 327 327 328 327 327 327 326 326 324 322 320 319 318 318 318 317 318 318 318 318 319 319 320 320 321 322 322 322 323 324 324 325 326 327 328 328 329 329 329 329 329 329 330 331 332 332 333 333 334 335 335 335 336 336 336 337 337 337 337 337 337 337 337 337 336 336 336 336 337 337 337 338 338 338 338
323 324 324 324 325 325 325 325 326 326 327 328 327 326 326 325 324 323 321 319 318 317 317 317 317 317 318 318 319 319 319 320 320 321 321 322 323 323 324 325 325 326 326 327 327 328 329 329 330 330 330 330 330 331 331 332 332 332 333 334 335 336 336 337 337 337 337 337 336 336 336 336 336 336 335 336 336 337 337 337 337 337 337 336 335
324 324 324 324 325 326 326 326 327 328 328 328 326 325 325 324 323 321 319 317 317 317 317 317 317 317 318 318 319 319 319 320 320 321 322 322 323 324 324 325 326 326 326 327 327 327 328 328 328 328 328 329 329 329 330 331 331 331 332 333 334 334 335 335 335 336 336 336 335 335 335 334 334 334 334 334 335 335 335 335 334 334 333 333 332
324 324 325 325 326 326 326 327 327 328 328 328 326 325 324 323 321 319 317 316 316 316 316 316 316 317 318 318 318 319 319 320 321 321 322 322 323 323 324 324 325 325 326 326 325 325 326 326 326 326 327 327 328 329 329 330 330 330 331 332 332 332 332 332 333 333 333 333 333 333 333 332 332 332 331 331 331 331 331 331 330 330 330 330 330
324 325 325 326 326 326 327 327 328 328 328 327 325 324 323 322 320 317 315 315 315 314 314 315 315 316 317 317 318 319 319 320 320 321 321 322 322 322 323 324 324 325 325 325 324 323 323 323 324 325 325 326 327 327 328 328 328 329 329 329 329 330 329 330 330 330 330 330 330 330 330 330 330 330 329 328 328 328 328 328 328 328 327 326 325
324 325 326 326 327 327 327 327 327 327 326 325 324 323 322 319 317 315 314 315 315 315 315 315 315 315 315 316 317 318 319 319 320 320 321 321 321 322 322 323 324 324 324 324 323 322 322 322 323 323 324 325 326 326 326 327 327 327 327 327 327 327 327 328 328 328 328 328 328 328 328 328 328 329 328 327 326 325 324 323 323 322 321 321 320
325 326 326 327 327 327 327 326 326 325 324 324 323 320 318 316 315 315 315 317 317 318 318 317 317 316 315 315 316 317 317 318 319 319 320 321 321 322 323 323 323 322 322 322 322 322 321 321 321 322 323 324 325 325 325 326 326 326 326 325 325 325 325 325 325 325 325 326 326 325 325 325 325 325 324 323 321 320 319 318 318 318 318 318 318
325 325 326 327 326 326 326 325 324 324 323 322 319 317 316 315 315 316 317 318 318 318 317 317 317 316 315 314 314 315 316 317 317 318 319 320 321 321 321 320 319 319 319 319 320 320 320 319 319 320 321 322 323 323 323 323 324 324 324 324 324 324 324 324 324 323 323 322 322 322 322 321 321 320 320 318 317 317 317 317 317 317 317 317 318
324 325 326 326 326 326 325 324 323 322 322 319 317 316 316 316 317 318 318 317 317 316 316 315 314 314 313 312 313 314 314 315 315 316 317 317 318 318 317 316 316 316 316 316 317 318 317 317 317 318 318 319 320 320 321 320 320 320 320 321 321 322 322 322 321 321 320 319 319 319 318 318 318 318 318 317 316 316 316 316 316 316 316 316 316
323 324 325 325 325 325 324 323 322 321 319 317 317 317 317 317 318 318 316 316 315 315 314 314 313 312 311 311 311 312 313 313 313 313 314 314 314 314 313 313 313 313 313 313 313 313 313 313 313 313 314 315 316 317 317 317 318 318 318 318 319 319 320 320 319 318 318 317 317 316 316 315 315 315 315 315 315 315 315 315 315 314 314 313 313
323 323 323 324 324 324 323 322 321 319 317 317 318 318 318 318 318 317 315 315 315 314 314 314 313 312 311 310 310 310 310 311 311 312 312 313 313 312 312 312 312 312 312 312 312 312 312 312 312 311 311 312 312 312 312 313 313 313 313 313 313 313 314 315 315 314 313 312 312 312 311 311 311 311 311 311 311 311 311 311 311 311 311 310 310
322 322 323 323 323 323 322 321 319 318 317 318 319 319 319 318 317 316 315 316 315 315 315 314 314 313 311 310 309 309 309 309 309 310 310 311 312 313 313 313 313 313 313 313 313 313 313 312 312 312 312 313 312 312 312 312 312 312 312 311 311 311 311 310 310 310 309 309 309 309 309 309 309 309 309 309 309 310 310 310 311 311 311 311 311
321 322 322 322 322 322 321 320 319 318 318 318 318 318 318 317 317 316 316 316 316 316 315 315 314 313 312 310 310 310 310 309 309 309 309 309 310 310 311 312 312 312 312 312 312 313 313 312 312 312 313 314 314 314 313 313 313 312 312 312 312 312 312 312 311 311 310 310 310 310 310 310 310 310 310 311 311 311 312 312 312 312 312 312 312
321 321 322 321 321 320 320 319 318 318 318 318 318 318 317 317 317 317 317 316 316 316 315 314 313 312 311 310 310 310 310 310 310 310 310 309 309 309 309 309 310 310 310 310 311 311 312 312 313 313 314 314 314 314 314 314 313 312 312 312 312 312 313 313 313 313 312 312 311 311 311 311 311 311 312 313 312 312 312 312 312 312 313 314 315
320 321 321 320 319 319 319 318 318 318 318 318 317 317 317 317 317 317 317 317 316 316 315 313 312 311 311 310 310 310 311 310 310 310 309 309 309 309 309 309 309 309 309 309 310 310 310 310 311 311 312 313 314 315 315 315 314 314 313 313 313 314 314 315 315 315 314 314 313 312 312 312 313 313 313 314 314 314 314 314 314 314 315 316 316
320 320 320 319 319 319 319 318 318 317 317 317 317 316 316 316 316 315 315 314 314 314 314 313 312 311 311 311 310 310 310 309 308 307 307 307 307 307 307 308 308 309 309 309 309 309 310 310 310 310 311 312 312 313 314 314 314 314 314 314 314 314 315 315 315 315 315 315 315 314 314 315 315 315 315 315 315 315 315 315 315 315 315 315 316
319 319 319 318 318 318 317 317 317 316 316 316 316 316 316 316 315 315 314 313 311 310 309 310 310 310 309 309 308 308 307 306 305 305 305 305 305 305 305 305 306 306 306 307 307 307 307 307 308 308 308 309 309 310 310 310 310 310 311 311 312 312 313 314 315 315 315 315 314 314 315 315 315 315 315 315 314 313 312 312 312 314 315 316 315
318 318 318 318 317 317 317 317 317 317 317 317 317 317 317 316 316 315 315 314 312 310 307 307 307 307 306 306 306 305 305 305 305 305 305 305 305 305 305 306 306 306 306 306 306 306 306 306 306 306 306 306 306 306 306 306 306 307 307 308 309 310 311 312 312 313 313 313 313 313 313 313 313 313 313 312 312 311 310 309 309 310 312 313 314
317 318 318 318 318 318 318 318 318 318 318 318 318 318 317 317 317 316 315 314 313 311 309 307 306 307 307 307 307 307 306 305 305 305 305 306 306 306 306 306 306 306 306 306 306 306 306 306 306 306 306 306 306 306 306 305 306 306 307 307 308 308 309 310 309 310 310 312 312 312 312 313 313 313 312 312 312 312 311 310 310 309 309 310 310
318 318 318 318 318 318 318 318 318 318 319 319 318 318 317 317 317 317 317 316 314 312 310 309 308 308 309 309 309 309 307 307 306 305 305 305 306 306 306 306 306 306 306 306 306 306 306 306 306 306 306 306 306 306 306 306 306 306 306 306 306 307 307 308 308 308 308 309 309 309 309 311 312 312 312 311 312 313 312 312 311 311 312 311 310
317 317 318 318 318 318 318 318 318 318 318 318 318 318 318 318 318 318 318 317 315 313 312 312 312 311 310 310 310 310 309 308 307 307 307 308 308 307 306 306 306 306 306 306 306 306 306 306 306 306 306 306 306 306 306 306 306 306 306 306 306 306 306 306 307 308 309 309 308 308 308 308 309 310 311 312 313 313 313 312 312 312 312 313 312
317 317 317 317 317 318 318 318 318 318 318 318 319 318 318 319 319 319 319 318 316 314 313 313 314 314 314 312 310 309 309 310 310 311 312 312 312 311 309 307 306 306 306 306 306 306 306 306 306 306 306 306 306 306 306 306 306 306 306 306 306 306 306 306 306 307 307 307 307 307 307 308 308 309 311 312 313 312 312 312 312 312 312 312 312
316 316 316 316 317 317 317 317 317 317 317 317 317 316 315 315 315 316 316 316 315 314 314 314 314 314 313 312 311 312 312 313 314 315 315 315 315 315 314 312 310 308 306 306 305 305 305 305 305 305 305 306 306 305 305 305 305 305 305 305 305 306 306 306 306 305 306 306 306 306 306 306 307 307 309 310 312 312 311 311 311 311 311 311 311
Wind_Speed
24 25 24 22 20 19 21 23 20 17 17 18 19 19 19 21 23 25 27 26 22 21 20 20 21 23 24 23 22 22 22 22 23 23 24 26 28 28 28 28 29 29 27 27 27 29 30 29 29 27 25 25 25 24 24 24 24 26 27 28 28 27 26 25 25 25 23 22 23 23 24 25 26 26 25 24 21 20 21 22 23 24 24 23 22
23 24 24 24 21 20 20 23 23 19 18 19 21 22 23 26 28 29 30 28 25 23 22 22 23 23 23 22 22 22 23 24 25 27 28 29 29 29 28 28 28 28 28 30 30 29 30 31 30 28 27 27 26 25 25 25 25 27 28 28 27 26 25 25 26 26 25 23 23 23 23 24 26 25 24 23 22 21 21 21 21 23 24 24 25
22 24 26 25 24 22 21 22 24 23 21 21 21 20 20 23 27 30 31 28 25 23 23 23 24 24 25 25 24 25 26 28 30 31 32 31 30 29 28 29 29 30 32 33 31 29 31 33 33 32 31 30 29 26 25 26 26 27 27 27 26 24 23 23 24 25 25 24 24 23 22 22 23 22 21 20 20 20 21 22 22 23 25 26 26
24 26 27 26 25 25 23 21 23 24 25 26 24 22 20 20 23 26 27 25 23 24 26 28 29 29 29 29 29 29 30 31 33 35 35 33 32 32 32 32 33 33 33 33 32 32 33 34 34 33 32 32 30 27 25 26 27 27 28 27 27 27 26 25 25 25 26 26 26 25 24 23 24 23 22 22 21 21 22 22 23 24 25 25 26
26 28 30 29 28 27 24 21 22 25 28 28 27 27 25 23 22 24 25 25 26 28 31 32 32 32 31 31 32 32 32 33 35 36 35 34 34 35 35 34 33 33 32 32 33 34 35 34 33 32 32 32 30 27 26 26 27 28 29 29 29 29 29 29 29 29 29 28 27 27 25 24 24 24 22 22 22 22 23 22 22 24 25 26 26
32 33 34 33 31 30 27 24 25 27 29 27 26 25 24 21 22 24 25 26 28 30 32 31 30 30 31 31 32 33 34 35 36 36 35 35 35 35 34 33 33 33 33 33 34 36 35 34 32 31 31 30 29 27 26 26 26 27 27 27 27 27 28 28 29 29 29 29 28 28 26 25 26 26 23 22 22 23 23 23 22 23 24 25 26
33 34 34 32 32 31 28 25 23 25 27 26 24 23 23 23 24 25 25 26 28 30 31 30 30 31 32 33 34 35 36 36 35 35 35 35 35 34 33 33 34 34 35 36 36 36 33 31 30 29 28 28 27 26 26 26 27 27 28 27 27 26 26 26 26 26 27 28 28 28 27 27 27 27 25 23 23 24 23 24 24 23 23 24 24
22 22 25 26 27 25 23 21 21 22 25 24 22 22 23 25 26 26 26 28 28 29 30 31 32 33 33 34 34 34 34 34 33 34 35 35 34 33 33 34 35 36 37 37 36 33 31 29 28 27 27 27 27 27 27 27 27 28 28 28 28 28 27 26 26 26 26 27 27 27 27 27 27 27 25 24 25 25 24 24 25 24 24 24 25
18 15 16 20 21 19 17 19 20 19 20 20 20 22 24 25 25 25 26 27 28 29 30 31 31 31 32 32 32 32 32 33 33 33 34 33 33 34 34 35 36 36 36 35 33 31 30 29 27 27 27 27 27 27 27 27 27 26 25 25 26 27 27 27 27 27 27 27 27 27 27 28 28 27 27 26 27 26 24 24 26 26 25 25 26
21 18 18 20 21 20 18 18 17 16 17 19 21 22 24 25 25 25 26 26 27 28 29 29 29 30 31 31 32 33 33 34 34 34 33 32 32 33 34 35 35 34 34 33 32 31 30 29 27 26 27 27 27 27 27 27 27 26 25 25 25 25 26 27 28 28 27 28 29 29 29 30 30 29 29 29 28 27 26 25 26 26 24 26 27
20 20 20 20 19 17 16 16 15 16 18 20 21 22 23 25 25 26 26 27 28 28 29 30 30 30 31 32 33 33 34 34 35 34 34 33 32 33 34 34 34 33 32 32 31 31 29 28 28 27 27 28 28 27 26 26 26 25 25 25 25 25 27 28 29 29 30 31 32 32 32 33 32 31 31 30 29 28 27 26 26 26 25 27 28
14 14 13 13 13 14 15 16 17 18 19 21 22 23 24 25 26 27 28 28 29 29 30 31 32 33 33 34 34 35 35 35 35 34 34 33 32 32 32 33 33 32 32 31 31 31 30 29 29 28 28 28 28 28 27 26 25 25 25 25 25 26 27 28 29 29 30 32 32 33 33 33 33 32 31 30 28 28 28 28 27 27 26 27 29
7 6 7 9 12 13 15 17 18 19 21 22 23 24 25 26 26 27 28 29 30 31 32 32 33 34 34 35 35 34 34 34 34 33 32 31 30 30 30 30 31 31 31 31 31 31 30 30 30 29 28 28 28 28 28 27 25 25 25 26 26 27 27 27 28 28 29 31 33 34 33 32 33 33 31 29 29 28 28 29 28 27 28 28 30
4 5 8 11 13 15 17 19 20 21 23 23 24 25 25 26 26 27 29 30 31 32 33 33 34 34 33 33 33 32 32 32 32 31 31 30 29 28 28 29 30 31 32 31 31 30 30 30 30 29 28 28 28 28 27 27 26 26 26 26 27 27 27 27 27 28 29 31 33 34 33 32 32 32 29 27 28 28 29 29 28 28 29 30 30
7 9 12 14 17 19 20 21 22 22 23 24 24 25 26 27 29 30 31 32 32 32 32 32 32 31 31 31 31 31 31 30 30 29 28 27 27 27 27 28 29 31 31 31 30 29 28 28 29 29 28 27 27 27 27 27 27 27 27 28 28 28 29 29 29 28 29 31 32 33 32 31 31 30 28 27 28 29 29 30 30 30 31 32 32
10 13 16 18 19 20 20 21 22 23 23 25 26 27 29 31 31 31 31 31 30 30 29 29 28 29 29 29 29 30 29 28 27 25 24 24 25 26 27 27 28 29 29 29 28 28 27 26 27 27 27 26 26 27 27 27 27 28 30 31 31 31 31 31 30 29 29 30 31 32 32 31 31 31 30 29 29 29 29 30 30 30 31 33 34
13 15 16 17 18 19 21 22 23 25 26 28 29 29 29 29 29 28 28 28 28 27 27 27 27 28 28 27 27 28 28 27 25 24 24 24 24 25 26 26 27 27 28 27 27 26 26 26 26 26 27 27 27 27 27 28 28 30 31 33 33 33 33 32 31 30 30 30 30 30 31 31 31 31 30 29 29 28 28 30 31 29 30 33 35
14 15 16 18 19 20 22 24 25 25 26 25 25 25 25 25 26 26 26 27 27 27 27 27 26 26 25 25 24 24 25 24 22 22 22 22 22 23 24 26 27 27 27 27 27 27 27 27 27 27 28 29 28 28 28 28 28 29 30 31 32 33 32 31 30 30 30 30 31 31 31 31 31 30 29 29 28 26 27 30 30 29 31 33 35
14 15 16 17 19 20 21 22 21 21 20 21 22 23 24 25 25 25 25 25 25 25 24 24 24 23 22 21 20 21 21 21 20 20 20 20 21 22 24 26 28 28 29 29 28 28 28 28 28 28 28 28 28 28 27 26 27 28 28 29 31 32 31 30 30 30 30 30 31 31 32 32 31 30 30 29 28 27 28 29 30 31 34 34 34
12 14 15 17 18 18 18 17 16 16 18 20 21 23 23 23 23 23 22 22 22 22 21 20 20 20 19 19 20 20 20 20 20 20 21 21 22 23 24 26 27 28 29 29 28 29 28 28 28 28 28 28 28 28 26 25 26 27 28 28 30 30 29 29 29 30 30 31 32 33 33 33 32 31 31 31 30 30 29 29 29 32 34 34 35
13 14 16 16 16 15 15 15 16 18 20 22 22 21 20 20 20 20 20 20 20 20 19 19 19 19 19 20 20 19 19 20 20 21 21 22 22 23 24 25 27 28 28 28 28 28 27 26 26 26 27 28 28 27 25 25 26 28 29 29 29 29 29 30 30 30 31 32 32 32 33 33 33 33 33 34 34 34 32 30 30 32 33 34 35
13 14 14 14 14 14 15 17 20 22 23 21 19 18 18 18 18 18 18 18 18 19 19 19 19 20 20 20 20 19 20 21 22 23 23 23 24 24 24 25 26 27 28 29 29 29 28 27 26 25 26 27 27 27 27 28 29 30 30 30 30 30 31 32 33 33 34 35 35 35 36 36 37 37 38 38 37 36 35 33 31 32 34 35 35
13 12 12 13 15 17 20 22 23 23 20 17 16 17 17 17 16 16 16 17 18 19 19 19 20 20 20 21 21 21 22 24 25 25 25 26 26 26 25 25 26 27 29 31 32 32 31 30 30 29 28 29 30 30 30 31 31 32 32 32 32 33 33 34 36 37 38 39 39 41 42 42 43 43 42 42 40 39 38 36 33 32 33 34 34
14 14 15 18 20 22 23 23 21 18 15 14 15 16 16 16 16 16 17 18 19 18 19 19 19 18 19 21 22 22 24 25 26 25 26 26 27 27 27 28 28 29 30 33 34 34 33 32 31 31 31 32 32 33 33 33 34 34 34 34 34 34 35 36 38 38 40 41 42 44 45 46 46 46 45 44 43 42 40 39 36 33 32 32 32
17 18 19 21 22 22 21 18 15 13 13 14 15 15 15 15 16 17 18 18 17 16 16 17 17 18 20 22 23 24 24 25 25 24 25 26 27 28 29 30 30 31 32 34 34 34 34 33 32 32 32 33 33 33 34 34 34 34 33 33 33 34 35 36 37 38 39 41 43 44 45 46 45 45 44 43 43 42 40 37 34 32 30 31 32
18 20 20 20 19 17 15 13 12 12 13 14 14 13 14 15 16 16 15 13 12 13 14 16 18 19 20 21 22 23 23 22 21 20 19 19 20 22 23 25 26 27 29 31 32 32 32 32 32 32 32 31 32 32 32 31 30 30 30 30 31 33 33 34 35 36 37 39 39 40 40 39 38 37 37 37 38 37 34 31 29 27 28 29 30
19 18 17 16 14 13 12 11 12 13 14 13 13 14 14 14 12 10 9 10 12 14 15 16 17 19 21 23 24 24 25 26 25 23 22 21 20 19 18 19 19 19 20 22 24 26 28 29 29 29 28 28 27 27 26 26 25 25 26 26 28 29 30 30 31 33 34 35 34 33 32 30 30 30 29 29 29 28 27 26 26 26 26 27 29
17 15 13 12 11 11 11 12 12 12 12 13 14 14 12 9 7 8 11 13 14 15 15 17 19 21 23 24 24 24 25 26 27 26 25 23 23 23 24 23 21 18 16 15 16 18 21 22 23 23 23 22 21 20 20 20 20 21 21 22 23 24 25 26 26 27 28 27 26 25 24 23 23 23 22 22 22 22 23 24 25 26 26 27 30
14 13 11 11 11 11 11 10 10 10 11 12 12 9 7 8 9 12 15 15 16 16 17 19 20 20 20 21 21 21 22 23 23 21 18 16 17 20 23 24 21 17 14 12 11 11 12 14 14 15 15 14 13 12 12 12 12 12 13 14 15 16 16 17 18 19 19 19 19 18 18 18 18 18 18 20 22 22 22 22 23 25 25 25 27
12 12 10 10 9 10 9 8 8 9 10 7 4 3 6 9 12 15 15 16 16 17 18 18 18 18 18 18 17 17 18 19 17 13 11 11 12 13 14 14 11 9 10 11 10 7 4 3 3 2 2 2 3 3 2 1 1 0 2 4 5 6 8 9 11 12 13 15 17 17 17 18 18 18 18 20 22 22 20 20 20 20 19 20 20
11 9 8 8 7 8 7 7 7 8 7 4 3 4 7 10 13 14 15 15 16 16 17 17 17 18 19 19 18 16 15 14 11 9 10 11 11 11 11 10 10 14 18 22 23 23 21 20 19 18 16 16 15 13 12 12 11 10 7 6 5 3 2 1 3 5 6 8 10 12 13 13 13 13 14 15 15 14 13 12 12 12 14 14 12
9 7 7 6 6 7 7 6 6 7 7 7 6 7 9 10 12 14 15 16 17 19 20 22 22 22 21 21 20 18 16 12 9 9 11 13 15 16 17 16 18 21 23 26 29 30 29 28 27 25 23 22 20 18 17 16 15 14 13 12 11 10 10 8 6 4 4 3 4 5 5 6 8 9 9 9 8 8 8 9 9 10 10 10 9
6 7 7 7 8 8 7 6 7 7 7 6 6 7 7 8 11 15 18 20 22 25 28 30 30 28 26 24 24 23 20 16 13 14 16 18 21 23 24 23 24 25 26 30 34 35 34 33 32 30 28 27 25 23 22 21 19 18 18 17 16 15 14 12 10 10 11 12 12 13 13 12 11 11 12 12 12 13 14 13 12 13 14 15 16
6 7 7 8 9 9 7 7 6 6 5 5 4 5 7 10 14 20 23 25 26 28 30 31 32 32 32 30 28 26 24 21 19 19 20 22 25 27 28 27 28 29 31 34 37 37 36 36 35 34 32 31 29 27 26 25 24 23 23 22 20 19 17 16 16 16 17 17 17 17 16 15 14 14 14 16 18 20 22 22 22 22 22 23 23
5 7 8 8 8 7 6 6 5 4 4 5 7 10 14 18 21 24 25 25 26 26 26 27 28 29 30 30 30 29 28 26 25 24 24 25 26 26 27 30 33 34 36 37 37 37 37 38 37 35 34 33 31 29 28 27 26 25 25 24 23 22 21 21 21 21 20 20 20 20 21 21 22 22 24 26 26 27 27 26 26 25 25 25 25
6 7 7 6 5 5 6 6 6 4 6 10 15 19 22 23 23 24 23 23 23 23 24 24 24 24 25 27 28 30 30 30 29 29 29 29 29 29 32 36 38 38 39 39 38 37 37 38 37 36 35 33 32 30 30 29 28 27 26 24 24 24 23 23 23 24 25 25 26 27 27 28 28 27 28 28 28 27 26 25 25 25 25 25 26
6 7 6 5 4 4 6 7 6 8 12 18 22 23 23 23 22 21 21 22 22 23 23 23 23 24 25 26 27 28 30 30 30 31 32 32 33 34 37 38 38 39 39 39 38 37 37 37 37 37 36 35 34 33 32 32 32 31 30 29 28 27 27 26 27 28 29 30 30 29 29 28 27 25 25 26 26 25 24 24 24 25 26 26 27
7 7 5 4 3 4 5 5 9 15 19 22 23 22 21 21 20 20 21 22 23 23 22 22 22 24 25 25 25 27 29 31 32 33 34 35 35 37 38 38 38 39 40 39 39 39 38 38 38 38 38 37 36 36 35 34 34 34 34 33 33 32 31 31 30 29 29 28 27 27 27 27 27 27 27 28 28 28 27 26 26 27 28 28 28
7 6 5 4 4 4 5 10 17 21 23 23 21 19 19 19 20 22 22 22 22 22 21 21 22 22 22 22 23 26 30 32 33 33 33 33 34 35 36 37 38 39 39 39 38 38 38 38 38 38 38 38 37 37 36 35 35 34 34 34 34 33 32 31 30 29 28 28 28 27 28 28 28 28 28 29 29 29 29 28 27 27 27 27 26
7 7 6 5 5 6 11 17 21 23 22 20 18 18 20 21 22 22 22 21 21 20 20 20 20 20 19 19 21 24 28 29 29 29 29 29 30 31 32 33 34 34 34 34 34 34 34 34 34 34 34 34 34 34 34 34 34 33 33 33 33 33 31 30 29 28 27 26 26 25 25 25 25 25 25 26 25 25 24 24 24 23 23 24 23
8 8 8 7 8 12 17 21 21 20 20 19 19 21 22 22 21 21 20 19 18 17 17 18 18 17 17 18 19 22 24 25 25 25 26 26 27 27 28 28 28 28 29 28 28 28 29 29 29 29 30 30 30 30 30 30 30 30 30 30 30 30 29 28 27 26 24 24 23 22 22 21 21 21 22 21 21 20 20 20 20 20 20 20 20
10 10 11 13 16 19 22 22 22 21 21 21 22 22 21 20 19 18 18 17 16 15 15 15 15 15 15 16 17 19 21 22 22 23 23 24 24 25 25 24 24 24 24 24 23 23 23 24 25 25 25 26 26 26 26 26 26 26 26 26 26 26 25 25 24 23 22 21 21 20 20 19 19 19 19 18 18 18 17 17 17 18 18 19 19
13 13 15 18 22 24 25 25 24 24 23 22 21 20 19 18 17 16 15 14 13 13 14 14 13 13 13 14 15 17 19 20 20 21 22 22 22 22 22 22 21 21 21 21 20 20 20 20 21 21 21 22 22 22 23 23 23 22 22 22 22 22 22 21 21 20 20 19 19 18 18 18 18 17 17 17 17 17 16 16 16 16 16 16 15
19 20 22 25 27 27 27 26 25 24 23 21 20 19 19 19 18 17 16 15 14 13 14 14 13 12 13 13 14 16 18 19 20 20 21 21 21 21 20 19 19 19 19 19 18 18 18 18 18 18 18 18 18 18 19 19 19 19 20 19 19 19 19 19 19 18 17 16 16 16 16 16 16 16 15 15 14 14 13 12 11 11 12 12 12
26 27 28 29 29 28 27 26 24 23 22 21 21 20 20 19 19 18 18 17 17 16 15 14 13 13 14 14 15 17 18 19 20 20 21 21 21 21 20 19 19 18 18 18 17 17 17 17 16 16 16 16 16 16 16 16 16 17 17 17 16 16 16 16 15 14 13 13 13 13 14 14 14 14 13 13 13 13 12 10 8 7 8 8 9
31 31 31 29 28 26 24 22 20 19 17 16 15 16 16 17 17 16 16 16 16 16 16 16 16 16 16 17 17 18 18 19 20 20 21 21 21 21 20 20 20 20 19 19 19 18 18 18 17 17 17 16 16 15 15 15 15 16 16 16 15 14 13 12 11 11 11 11 11 11 11 12 12 12 12 13 15 15 15 13 11 9 7 6 6
29 27 25 23 21 19 17 16 15 13 12 11 11 11 13 15 16 16 16 15 15 15 15 15 16 16 17 18 18 19 20 20 21 21 21 20 20 20 20 20 20 20 20 20 19 19 19 19 18 18 17 17 16 16 15 15 16 16 16 16 15 14 13 12 10 10 10 10 9 9 9 10 10 10 10 12 14 16 17 16 14 12 11 10 7
23 22 21 19 18 16 15 14 14 13 12 11 11 11 13 14 15 15 15 15 15 15 15 15 15 15 16 17 18 18 19 19 20 20 20 20 19 19 19 18 18 18 18 18 18 18 18 17 17 16 16 16 15 15 15 15 15 15 15 15 15 14 12 10 9 9 10 9 9 8 7 7 6 6 7 8 10 13 15 15 13 12 12 12 10
18 18 18 18 17 16 15 14 13 13 13 12 12 12 12 12 13 13 13 12 13 13 14 15 15 15 15 15 15 16 16 17 18 18 19 19 19 18 17 17 17 17 17 17 17 17 17 16 15 15 14 14 14 14 13 13 14 14 14 14 14 13 12 10 9 8 8 8 9 8 8 7 6 6 6 6 7 9 11 11 10 10 9 8 8
15 15 14 14 13 13 13 12 11 10 9 9 8 9 9 9 9 9 8 7 8 10 11 12 12 12 13 13 14 14 15 16 17 18 19 19 19 18 17 16 16 16 16 17 16 15 15 15 14 14 14 13 13 13 13 13 13 13 14 13 12 12 11 11 10 9 9 9 9 8 8 7 7 6 6 6 5 6 7 7 7 7 6 5 5
13 12 12 11 10 10 10 10 9 9 8 8 9 9 9 9 9 7 5 5 5 6 7 8 8 9 10 11 13 15 15 16 16 17 18 19 19 18 18 17 17 17 17 17 17 16 15 15 14 14 14 13 13 13 13 13 13 13 13 13 12 11 11 10 10 9 9 9 9 8 8 7 7 7 5 4 4 5 5 5 5 5 5 4 4
Wind_Direction
234 230 229 234 241 243 236 234 238 244 247 251 256 263 271 275 275 276 273 266 259 258 263 269 271 270 268 266 262 258 256 259 270 280 284 286 285 283 279 274 271 272 273 278 284 288 290 290 290 289 288 286 283 277 273 273 274 273 272 275 275 273 273 274 275 277 278 276 275 275 275 275 276 277 279 280 276 270 267 266 267 270 273 271 268
235 232 233 238 244 247 243 239 239 243 247 253 260 266 269 270 270 274 276 271 263 260 263 267 270 269 267 266 264 260 261 270 280 287 289 289 285 279 274 269 267 270 275 283 286 287 290 291 291 290 290 289 288 281 273 270 271 272 272 274 276 274 271 271 272 274 276 276 276 275 274 273 273 273 275 277 278 274 270 268 267 268 268 269 268
241 239 239 242 247 250 248 244 240 241 245 250 257 262 267 273 274 277 280 274 265 262 261 264 268 269 268 269 269 269 272 278 285 289 292 291 286 279 274 270 271 276 282 285 285 285 289 291 289 290 290 289 289 283 274 269 268 270 271 273 274 272 269 269 271 272 274 277 278 277 274 271 271 272 272 273 275 275 273 270 268 266 265 265 266
241 239 241 244 248 248 245 241 240 242 243 246 250 253 262 275 278 278 277 268 260 260 261 265 271 272 269 270 272 275 278 282 286 289 290 288 285 282 280 279 280 282 284 284 283 286 289 290 287 287 288 288 287 282 276 271 268 267 268 269 270 269 268 266 267 270 274 277 277 277 276 274 273 273 272 272 272 271 271 272 271 270 268 266 265
243 239 240 240 240 236 231 234 241 243 244 247 249 250 257 269 274 272 268 264 264 266 266 269 272 271 270 272 276 280 282 285 286 286 286 285 285 286 286 284 283 284 283 282 283 287 289 288 286 285 285 285 283 279 275 272 269 267 266 267 268 268 266 264 265 269 272 274 274 274 275 275 275 274 273 273 272 271 270 270 271 271 270 268 267
238 236 236 235 232 228 225 232 241 243 246 255 261 260 262 269 271 270 267 268 270 272 274 276 276 275 276 278 280 281 282 283 284 285 285 286 286 286 286 285 284 283 282 282 285 288 288 286 284 282 281 281 280 278 276 274 273 271 268 266 267 266 265 265 265 267 269 270 270 270 271 272 273 275 275 274 274 272 271 269 268 268 270 270 270
240 238 237 236 232 229 232 239 244 245 252 263 270 268 267 268 270 273 273 271 271 273 277 278 277 277 277 277 278 279 280 281 283 284 285 285 285 285 284 282 281 280 281 283 286 287 285 283 281 279 278 278 278 277 276 275 275 273 270 267 266 266 266 266 266 266 267 268 268 267 267 268 271 273 275 274 272 270 270 271 271 269 271 273 273
248 242 240 242 240 235 241 252 256 254 256 261 267 270 271 272 274 276 276 273 272 273 274 273 273 274 274 275 277 278 280 281 282 282 283 283 283 282 280 278 279 280 282 283 284 283 282 279 276 275 276 277 276 275 274 273 273 273 272 270 269 268 267 268 268 268 268 269 269 269 269 269 269 271 273 273 272 270 271 276 278 275 273 273 271
252 257 256 257 257 254 257 263 262 258 257 262 268 272 274 275 274 273 273 272 273 274 274 274 276 276 277 278 279 280 282 282 282 282 281 280 279 279 279 280 280 281 282 282 281 281 280 277 273 273 275 276 276 275 273 272 272 273 274 274 272 269 268 269 271 270 271 271 271 271 271 270 271 273 274 274 275 276 277 279 279 277 276 275 271
261 275 274 268 269 271 267 263 262 262 264 269 271 272 274 275 274 274 273 274 275 276 276 277 278 279 280 280 280 280 280 280 279 280 279 279 280 280 280 280 281 282 283 282 281 279 279 277 274 274 274 274 276 275 273 272 272 273 273 272 271 269 269 270 270 270 272 272 273 274 274 273 274 275 276 277 279 281 281 280 280 279 279 277 272
264 275 275 272 273 271 261 257 263 269 270 272 272 273 274 274 275 274 274 274 275 276 277 278 279 280 281 281 281 279 279 278 278 279 280 280 280 279 280 280 281 281 282 281 280 279 278 277 276 275 273 273 274 275 274 272 270 269 269 269 269 268 269 269 269 270 272 272 274 274 274 275 276 277 278 279 280 282 282 282 281 281 279 278 276
265 275 273 263 260 261 258 260 267 268 267 269 270 272 274 274 275 276 276 276 277 277 278 279 280 281 281 282 282 281 281 281 281 281 281 280 279 279 279 279 279 279 279 280 280 279 278 277 276 275 273 272 273 275 275 273 269 268 267 267 266 265 265 266 268 270 271 272 273 272 272 274 275 275 276 278 281 283 283 282 281 280 278 276 276
271 277 263 250 254 261 263 265 267 269 271 274 275 276 276 276 276 277 277 278 279 280 281 281 282 283 283 284 284 283 283 283 282 282 282 280 279 278 277 277 277 277 278 278 279 278 278 276 275 274 272 271 272 273 274 274 273 271 269 267 266 265 265 266 266 267 269 270 271 271 271 272 272 273 274 277 280 281 280 280 279 278 276 274 274
273 264 258 260 265 269 272 275 278 280 280 280 278 277 276 276 277 279 281 282 283 284 285 285 286 286 286 286 286 285 285 285 285 286 285 282 279 277 276 276 276 276 276 276 276 275 275 275 275 274 272 271 271 272 274 275 275 275 273 271 268 267 267 267 266 265 265 265 266 267 268 269 271 272 273 275 276 276 276 278 278 277 277 277 277
271 269 271 275 278 279 281 282 281 280 278 277 278 279 280 282 283 284 286 287 288 289 289 289 289 288 287 287 287 287 287 288 289 289 288 286 283 279 278 277 276 276 276 275 274 273 273 274 275 275 273 271 271 273 273 274 275 275 274 273 272 271 270 268 267 265 263 262 262 263 265 267 269 271 272 272 272 273 275 276 276 277 277 276 275
274 275 277 278 277 277 277 276 277 278 279 281 283 285 286 287 289 290 291 291 291 291 291 291 291 290 291 291 291 291 291 291 290 289 288 286 283 281 280 279 278 278 277 276 275 272 272 273 274 274 273 272 272 272 272 273 275 276 276 275 275 274 272 269 267 266 264 262 261 262 263 264 266 268 270 270 271 272 273 273 271 271 271 271 271
272 273 274 273 274 276 277 279 281 283 284 286 288 289 291 292 293 295 295 296 296 295 295 294 294 294 294 294 294 293 293 292 291 289 287 285 281 279 278 278 278 278 278 278 276 274 273 272 272 273 273 272 271 271 270 272 273 274 274 274 273 272 272 271 269 267 265 265 265 265 265 265 266 267 268 269 270 270 268 267 267 266 267 268 270
271 272 275 276 278 280 282 284 286 287 290 294 296 299 300 300 301 302 301 300 299 298 298 297 296 295 295 294 294 295 296 296 295 293 290 286 280 276 274 274 275 276 277 277 276 274 272 271 271 271 271 271 272 271 270 270 270 270 270 270 269 269 269 270 270 269 267 267 267 267 267 267 267 268 268 269 271 269 265 264 266 267 268 268 268
273 275 277 278 280 283 286 289 293 296 300 303 306 306 305 304 304 303 301 300 300 300 301 302 301 301 300 301 301 302 302 301 299 297 295 290 284 279 277 276 276 276 277 277 277 275 272 271 270 270 270 270 271 270 269 268 267 267 267 267 267 268 269 270 270 270 269 268 268 268 268 268 266 266 266 267 268 268 266 265 266 266 266 266 267
273 275 278 282 286 289 291 294 296 299 303 306 307 305 304 303 303 303 304 304 305 306 308 309 310 310 310 309 308 307 305 303 300 299 298 294 290 286 283 280 279 278 278 279 278 277 275 273 272 271 270 269 268 267 266 266 266 267 267 267 268 269 272 273 271 270 269 269 270 269 268 266 264 262 264 266 268 267 265 264 264 263 264 265 265
273 279 284 288 291 291 291 294 297 303 309 310 308 306 306 307 307 309 310 310 310 312 313 314 313 312 310 310 308 305 303 301 299 299 298 295 292 289 286 283 281 279 279 279 279 278 277 276 274 272 269 268 268 267 267 266 268 269 269 269 271 273 274 274 273 272 270 269 268 267 265 263 262 261 264 268 270 269 266 264 264 263 263 264 265
284 288 291 290 290 291 293 299 305 310 313 311 308 307 308 308 309 312 314 315 316 316 315 315 314 312 310 312 312 309 305 302 300 299 297 294 290 288 286 284 282 281 281 280 278 277 276 276 275 274 272 269 269 269 269 269 269 270 270 271 271 271 271 272 273 272 271 269 268 267 266 265 264 264 266 268 268 268 268 267 268 267 265 264 264
295 293 291 291 295 299 303 308 312 314 313 309 307 308 309 310 312 315 317 318 317 317 317 316 315 313 313 315 314 310 305 302 299 297 294 290 287 285 283 281 280 278 277 277 276 275 274 274 274 274 274 272 271 271 271 271 271 270 270 270 270 270 270 271 271 271 270 270 269 268 267 267 267 268 268 268 269 269 269 270 272 270 267 265 266
298 296 297 301 306 308 309 312 315 314 312 312 314 315 316 317 319 318 317 317 318 318 319 317 316 314 312 310 307 304 300 297 295 292 289 286 282 280 277 274 273 272 271 273 274 275 275 275 275 275 274 272 272 272 271 271 270 270 271 271 271 271 271 270 269 268 268 267 266 266 266 267 268 269 270 272 273 274 274 274 274 269 265 264 264
302 303 305 309 312 313 314 316 315 317 321 325 326 326 325 324 321 318 317 319 322 324 323 321 320 318 315 312 309 307 305 302 300 297 294 289 285 281 278 275 274 272 271 272 273 274 275 276 275 274 272 271 271 270 270 270 271 272 272 272 271 269 268 267 267 266 265 265 265 266 267 269 270 272 274 275 275 275 276 276 271 264 262 264 263
309 309 310 312 315 318 319 320 322 328 334 334 331 329 328 326 322 318 322 329 334 334 331 328 328 327 325 326 326 326 327 327 326 322 317 308 300 293 287 283 280 276 274 273 273 272 272 272 272 271 271 271 271 271 272 273 272 271 270 268 267 265 265 265 264 264 265 266 267 269 270 272 274 274 275 274 272 272 273 271 266 263 264 266 267
315 314 315 318 321 323 328 332 335 338 340 338 335 334 336 337 333 333 345 354 352 347 345 344 345 346 346 347 347 347 347 348 348 348 345 338 330 322 315 307 299 292 285 279 274 271 268 267 268 268 269 269 270 271 272 273 272 270 269 267 265 264 263 263 263 264 266 268 270 272 273 275 274 272 270 269 269 269 267 265 265 266 266 268 270
322 322 324 327 326 329 337 341 340 343 350 347 339 340 351 6 14 14 11 8 6 5 5 4 3 2 359 357 355 352 349 348 348 347 344 340 335 331 330 330 330 326 315 298 281 270 265 264 264 265 267 269 271 272 273 273 272 271 269 267 264 264 263 262 261 262 265 267 269 271 273 274 272 270 267 267 266 266 264 262 262 264 268 269 266
329 328 327 330 331 334 342 345 342 351 1 353 339 347 24 42 29 20 19 20 21 20 17 15 12 9 6 1 357 353 349 346 344 344 344 344 337 330 329 331 335 336 331 320 299 275 265 263 262 263 265 269 274 278 279 279 276 273 272 270 269 267 263 259 257 260 266 270 273 276 278 279 280 277 273 268 264 262 262 262 262 264 264 259 250
331 330 334 340 342 342 349 355 354 0 9 3 342 20 52 40 28 28 31 31 29 27 25 23 18 15 12 8 3 358 351 344 343 353 8 9 354 344 342 343 351 14 36 41 46 58 74 89 93 87 87 82 67 57 48 45 69 120 266 278 285 281 269 264 268 273 275 276 276 276 277 277 276 271 263 255 252 253 255 256 255 251 243 232 225
335 343 352 356 355 353 358 4 10 18 35 69 101 72 51 40 37 40 42 41 40 40 39 35 29 24 21 18 14 7 358 351 356 17 32 32 29 32 38 42 54 70 75 75 74 75 79 83 84 86 92 95 97 100 104 105 105 105 104 98 85 70 56 358 320 299 284 275 270 265 263 260 252 243 235 230 230 234 234 230 223 212 204 202 199
347 0 7 12 13 7 5 21 46 66 82 92 86 69 53 45 46 54 58 58 58 56 53 49 45 39 34 28 25 22 17 17 30 50 56 58 63 67 72 77 81 84 87 86 81 78 79 81 83 87 93 95 97 100 101 100 100 97 93 90 86 81 81 81 77 85 103 119 138 155 167 174 174 169 162 160 164 162 157 158 161 156 155 156 146
8 16 28 43 38 25 28 57 83 93 95 92 90 79 58 51 64 77 79 74 70 65 60 56 52 48 44 40 36 34 33 35 47 65 72 75 77 78 80 84 87 88 89 86 79 75 76 78 81 84 88 89 91 93 92 90 90 89 87 86 84 82 84 87 89 93 97 102 108 112 114 119 124 123 115 109 108 108 109 112 116 116 114 109 102
26 32 51 60 50 45 57 76 87 91 90 91 95 89 86 92 96 94 88 80 72 66 59 55 53 50 48 46 44 43 43 45 53 66 74 79 82 82 83 85 84 84 83 82 79 77 76 76 77 80 83 85 87 88 87 86 86 86 85 84 83 82 81 79 79 81 85 89 92 94 95 98 101 101 99 96 97 98 98 98 98 97 96 94 91
46 58 70 68 60 61 65 63 67 81 87 90 97 104 108 109 104 96 87 78 69 63 58 54 52 49 48 48 50 50 50 50 55 62 70 76 79 82 84 82 79 78 78 78 79 78 77 76 76 78 80 81 82 81 79 78 78 79 80 80 80 80 78 76 76 77 78 80 83 86 89 91 93 95 96 96 95 95 94 92 91 91 91 93 92
72 79 79 71 61 60 53 50 61 89 106 108 111 113 112 108 101 93 84 75 69 65 62 58 56 54 54 54 54 56 57 56 57 60 64 68 70 73 76 76 75 75 76 77 78 79 77 76 76 77 78 79 79 79 78 76 75 75 75 75 75 75 75 76 78 80 82 83 84 86 86 87 88 90 92 92 91 91 91 91 91 92 93 95 95
83 83 83 78 65 48 36 44 74 107 116 117 117 115 111 106 101 93 84 77 73 69 64 61 59 58 58 57 58 61 63 63 63 62 62 64 66 68 71 72 73 74 74 75 76 77 77 77 77 78 79 79 80 80 80 79 78 77 75 74 74 74 74 74 77 81 83 85 86 87 86 86 87 87 87 88 88 88 89 90 93 95 96 96 95
89 87 88 93 82 39 26 66 111 121 122 121 120 116 112 107 101 92 84 79 74 69 65 61 57 55 55 56 59 63 65 65 64 62 61 61 64 66 69 70 71 72 73 73 74 74 74 74 75 76 77 78 78 79 79 79 79 79 78 77 77 77 78 78 79 80 80 81 82 84 85 86 87 86 85 86 86 86 86 88 91 94 94 92 90
100 99 101 105 91 67 87 120 128 128 127 124 121 116 113 108 100 92 84 79 75 71 67 62 56 53 53 55 58 62 64 63 61 61 62 63 65 68 70 71 71 72 73 72 73 73 73 73 73 73 74 74 74 75 76 76 77 78 79 79 78 78 78 78 79 79 79 78 78 79 78 79 80 80 81 82 83 83 84 84 85 86 85 83 82
112 113 118 118 104 105 121 129 130 128 125 122 117 114 110 105 97 91 85 81 78 73 68 62 56 52 50 51 55 60 61 61 59 60 62 64 66 67 69 70 71 72 72 71 71 72 72 73 74 74 74 73 73 74 75 75 75 76 76 76 76 75 75 74 73 73 74 73 73 73 72 72 73 74 74 76 77 77 78 78 78 77 76 75 75
118 120 121 121 121 125 129 130 128 124 121 117 113 109 105 99 94 90 87 84 79 73 68 64 59 53 49 49 52 57 60 59 58 58 58 59 61 63 66 68 69 71 72 71 71 71 71 72 73 73 73 73 74 74 74 74 74 75 75 75 75 75 75 74 72 71 70 70 70 70 70 70 70 71 73 75 75 74 74 74 74 73 73 74 75
122 122 119 122 127 127 124 122 120 118 116 112 107 102 97 93 91 90 87 82 76 71 68 67 63 57 53 51 50 52 56 57 57 57 57 57 57 58 60 62 64 65 67 68 68 68 68 69 70 71 72 71 71 71 71 70 70 71 72 73 73 74 74 74 74 72 71 70 70 71 72 71 72 73 74 75 74 73 72 73 74 76 76 77 76
122 121 120 122 124 121 116 115 116 115 112 107 101 97 94 92 90 87 83 78 70 64 63 66 66 62 56 50 46 47 50 53 54 56 57 58 58 59 59 59 60 61 62 63 63 62 62 63 65 66 68 68 69 68 68 67 67 67 68 70 71 71 72 72 72 71 69 68 69 72 74 74 74 74 73 71 69 68 68 70 73 76 78 77 75
119 122 122 121 119 115 113 114 114 112 108 104 101 98 95 91 86 82 77 73 69 65 64 65 64 61 56 51 47 47 49 52 54 56 57 59 60 61 61 61 62 62 62 61 60 59 58 59 60 61 62 64 66 66 67 66 65 64 64 66 67 68 69 69 70 70 69 67 68 72 74 73 72 70 68 66 63 60 58 59 63 69 73 73 73
115 117 118 117 115 114 114 115 113 109 107 106 103 99 94 89 85 81 75 70 68 68 68 67 65 63 60 58 57 57 57 58 58 58 58 58 59 61 62 63 63 64 64 64 63 62 61 60 60 60 60 60 61 61 62 63 63 62 61 60 60 62 64 64 65 67 66 63 64 70 73 71 70 70 68 65 61 58 57 57 61 68 73 74 72
111 111 112 112 112 112 113 112 111 109 108 107 104 101 97 93 87 82 77 73 69 67 68 70 70 68 67 65 65 65 64 63 61 60 59 58 58 59 59 60 62 62 63 63 63 62 62 61 61 61 61 60 60 60 61 62 62 62 60 59 58 60 62 64 66 67 64 60 60 67 74 75 74 72 68 65 63 62 61 62 68 72 73 73 71
105 104 104 105 104 105 106 106 106 105 105 106 108 108 105 100 92 84 80 76 71 68 69 71 72 72 71 69 68 66 65 63 62 60 59 58 57 57 57 57 58 59 59 59 59 58 58 58 58 58 58 58 58 59 60 62 62 61 59 58 57 57 57 59 61 62 62 61 61 64 71 76 75 71 68 69 71 69 65 64 68 70 68 65 66
101 99 98 97 97 99 102 101 98 96 96 103 109 109 104 100 95 88 82 76 71 69 71 72 72 72 72 70 69 67 66 65 65 63 60 57 56 56 56 56 56 57 57 58 58 57 56 56 56 56 57 58 58 59 60 62 63 63 63 61 58 55 53 53 55 58 60 63 64 63 64 69 71 71 74 77 79 77 73 69 68 68 67 64 61
102 99 97 97 97 100 101 100 96 94 93 96 101 102 101 99 95 90 84 78 73 74 76 73 70 69 69 69 70 69 67 66 66 65 62 59 55 54 54 55 55 56 56 55 55 55 54 54 55 55 56 58 58 59 60 60 60 60 59 57 54 51 50 51 53 53 49 50 53 56 60 66 74 86 94 86 75 75 79 78 74 71 69 63 54
110 107 103 101 101 102 102 101 100 99 96 94 94 98 103 105 102 95 85 72 68 72 77 77 74 71 68 65 65 64 62 61 62 62 61 59 56 53 53 53 51 51 51 52 52 52 51 51 52 52 52 52 53 53 53 54 54 54 54 52 49 47 48 49 51 50 46 42 39 39 43 48 54 66 82 83 69 64 71 74 69 64 63 60 49
121 119 117 114 111 109 107 104 102 98 97 96 94 92 93 97 98 95 88 75 68 73 79 80 76 72 66 62 62 63 62 60 59 59 59 58 56 53 51 50 49 49 48 47 47 48 49 48 48 48 48 48 48 47 47 47 46 46 46 46 44 43 42 41 40 40 43 45 43 38 37 39 39 41 52 69 69 59 56 52 42 35 33 27 15